Погода в Уке

Россия / Иркутская область     55°04′41″N   98°51′34″E
темп.,
°C
ветер,
м/с
пор.,
м/с
влажн.,
%
обл.,
%
осадки,
мм/ч
давл.,
гПа
погр.,
м
8 мая, сб
сб823:00+5юв3895100 5.8 1008380
02:00+7зсз21096100 12.2 1007445
05:00+6зсз413855 0.0 1011769
08:00+8зсз5127614 0.1 10131458
11:00+11зсз6105598 0.3 10121893
14:00+10зсз5116396 1.1 10121742
17:00+11зсз61056100 0.5 10121910
20:00+8зсз4866100 1.0 10141210
9 мая, вс
вс923:00+5ююз2485100 0.3 1014183
02:00+5ю238792 0.3 101286
05:00+5зюз1493100 1.1 1010233
08:00+3сз3796100 2.6 1012545
11:00+5з3579100 0.3 1012881
14:00+5зсз3586100 0.6 1012832
17:00+6сз586612 0.6 10121344
20:00+5зсз5107290 0.7 10141136
10 мая, пн
пн1023:00+2зсз41094100 0.1 1015878
02:00+2зсз3996100 0.3 1016653
05:00+1з3797100 0.2 1016297
08:00+1зсз3997100 1.7 1018547
11:00+2з2999100 2.9 1020518
14:00+4зсз378792 3.1 1020715
17:00+7зсз457086 0.1 10201089
20:00+5зсз357915 0.2 1020440
11 мая, вт
вт1123:00+1зюз229026 0.0 102136
02:00+1зюз119238 0.0 102012
05:000з119310 0.0 101910
08:00+4св117915 0.0 1019188
11:00+8в235995 0.1 10171402
14:00+8в235793 0.1 10171204
17:00+9в1253100 0.1 10161256
20:00+7сз1166100 0.1 101713
12 мая, ср
ср1223:00+5з227698 0.0 101730
02:00+3зсз229185 0.0 101741
05:00+3ссз2392100 0.0 1017433
08:00+3с2595100 0.3 1017424
11:00+4с2373100 0.3 1017973
14:00+9ссз234288 0.3 10151886
17:00+9ссв4440100 0.0 10141934
20:00+6с365999 0.1 1016602